N81SA SKRG-SKPE

Flight info

Callsign N81SA
Flight time N/A
Altitude 14000
Route IBDAM1A DABID W37 AKSIM AKSIM2A
Aircraft BE58/L-SDFGRY/C

Departure

Time 2026-04-20 19:22
Airport Jose Maria Córdova International Airport (SKRG)

Arrival

Time N/A
Airport Matecaña International Airport (SKPE)
Time Latitude Longitude Altitude Speed Heading
2026-04-20 19:22 6.22523 -75.39105 10331 ft 151 kts 124°
2026-04-20 19:22 6.21943 -75.38228 10784 ft 149 kts 124°
2026-04-20 19:22 6.21376 -75.37391 11230 ft 141 kts 125°
2026-04-20 19:22 6.20828 -75.36583 11617 ft 141 kts 125°
2026-04-20 19:23 6.20258 -75.35759 11969 ft 146 kts 126°
2026-04-20 19:23 6.19660 -75.34913 12293 ft 153 kts 126°
2026-04-20 19:23 6.19241 -75.34319 12467 ft 161 kts 126°
2026-04-20 19:23 6.18573 -75.33384 12732 ft 169 kts 127°
2026-04-20 19:24 6.17859 -75.32417 12992 ft 175 kts 127°
2026-04-20 19:24 6.16963 -75.31589 13243 ft 179 kts 158°
2026-04-20 19:24 6.15740 -75.31557 13510 ft 181 kts 201°
2026-04-20 19:24 6.14811 -75.32382 13788 ft 183 kts 243°
2026-04-20 19:25 6.14549 -75.33640 14025 ft 189 kts 266°
2026-04-20 19:25 6.14540 -75.35016 14033 ft 203 kts 274°
2026-04-20 19:25 6.14765 -75.36441 14032 ft 213 kts 281°
2026-04-20 19:25 6.15084 -75.37925 14032 ft 220 kts 282°
2026-04-20 19:26 6.15120 -75.39458 14031 ft 223 kts 258°
2026-04-20 19:26 6.14675 -75.40964 14030 ft 226 kts 250°
2026-04-20 19:26 6.14106 -75.42446 14031 ft 227 kts 248°
2026-04-20 19:26 6.13506 -75.43911 14032 ft 226 kts 247°
2026-04-20 19:27 6.12904 -75.45354 14031 ft 226 kts 247°
2026-04-20 19:27 6.12293 -75.46812 14032 ft 225 kts 247°
2026-04-20 19:27 6.11683 -75.48262 14033 ft 225 kts 247°
2026-04-20 19:27 6.11073 -75.49713 14029 ft 225 kts 247°
2026-04-20 19:28 6.10465 -75.51161 14009 ft 225 kts 247°
2026-04-20 19:28 6.09885 -75.52622 13986 ft 225 kts 250°
2026-04-20 19:28 6.09369 -75.54110 13814 ft 225 kts 251°
2026-04-20 19:28 6.08865 -75.55603 13810 ft 226 kts 251°
2026-04-20 19:29 6.08365 -75.57094 13806 ft 225 kts 252°
2026-04-20 19:29 6.07887 -75.58586 13808 ft 224 kts 252°
2026-04-20 19:29 6.07412 -75.60085 13809 ft 225 kts 252°
2026-04-20 19:29 6.06937 -75.61588 13805 ft 225 kts 252°
2026-04-20 19:30 6.06470 -75.63066 13798 ft 225 kts 252°
2026-04-20 19:30 6.05993 -75.64561 13784 ft 225 kts 251°
2026-04-20 19:30 6.05499 -75.66048 13778 ft 225 kts 251°
2026-04-20 19:30 6.05001 -75.67534 13770 ft 225 kts 251°
2026-04-20 19:31 6.04483 -75.69020 13749 ft 225 kts 250°
2026-04-20 19:31 6.03959 -75.70501 13750 ft 225 kts 250°
2026-04-20 19:31 6.03432 -75.71981 13732 ft 224 kts 250°
2026-04-20 19:31 6.02908 -75.73457 13733 ft 224 kts 250°
2026-04-20 19:32 6.02383 -75.74936 13723 ft 225 kts 250°
2026-04-20 19:32 6.01856 -75.76421 13714 ft 226 kts 250°
2026-04-20 19:32 6.01224 -75.77858 13692 ft 225 kts 234°
2026-04-20 19:32 6.00006 -75.78819 13678 ft 226 kts 204°
2026-04-20 19:33 5.98526 -75.79360 13672 ft 227 kts 198°
2026-04-20 19:33 5.97037 -75.79838 13672 ft 227 kts 198°
2026-04-20 19:33 5.95501 -75.80212 13663 ft 228 kts 189°
2026-04-20 19:33 5.93925 -75.80437 13654 ft 228 kts 187°
2026-04-20 19:34 5.92351 -75.80643 13647 ft 229 kts 187°
2026-04-20 19:34 5.90767 -75.80855 13649 ft 229 kts 188°
2026-04-20 19:34 5.89196 -75.81104 13653 ft 229 kts 189°
2026-04-20 19:34 5.87646 -75.81396 13654 ft 228 kts 192°
2026-04-20 19:35 5.86090 -75.81733 13647 ft 229 kts 192°
2026-04-20 19:35 5.84537 -75.82076 13651 ft 228 kts 192°
2026-04-20 19:35 5.82958 -75.82274 13651 ft 228 kts 183°
2026-04-20 19:35 5.81368 -75.82331 13646 ft 228 kts 182°
2026-04-20 19:36 5.79777 -75.82373 13650 ft 228 kts 181°
2026-04-20 19:36 5.78186 -75.82413 13650 ft 228 kts 181°
2026-04-20 19:36 5.76591 -75.82453 13652 ft 229 kts 181°
2026-04-20 19:36 5.74999 -75.82493 13657 ft 229 kts 181°
2026-04-20 19:37 5.73423 -75.82534 13657 ft 229 kts 181°
2026-04-20 19:37 5.71833 -75.82575 13657 ft 229 kts 181°
2026-04-20 19:37 5.70242 -75.82615 13657 ft 228 kts 181°
2026-04-20 19:37 5.68653 -75.82655 13657 ft 229 kts 181°
2026-04-20 19:38 5.67062 -75.82695 13655 ft 228 kts 181°
2026-04-20 19:38 5.65472 -75.82735 13654 ft 229 kts 181°
2026-04-20 19:38 5.63883 -75.82775 13654 ft 229 kts 181°
2026-04-20 19:38 5.62290 -75.82815 13654 ft 229 kts 181°
2026-04-20 19:39 5.60697 -75.82855 13659 ft 229 kts 181°
2026-04-20 19:39 5.59107 -75.82930 13655 ft 229 kts 188°
2026-04-20 19:39 5.57553 -75.83274 13654 ft 228 kts 195°
2026-04-20 19:39 5.56021 -75.83691 13660 ft 228 kts 195°
2026-04-20 19:40 5.54505 -75.84112 13654 ft 228 kts 195°
2026-04-20 19:40 5.52972 -75.84539 13660 ft 228 kts 195°
2026-04-20 19:40 5.51441 -75.84968 13659 ft 228 kts 196°
2026-04-20 19:40 5.50092 -75.85776 13650 ft 228 kts 227°
2026-04-20 19:41 5.49409 -75.87191 13646 ft 229 kts 261°
2026-04-20 19:41 5.49617 -75.88752 13639 ft 229 kts 294°
2026-04-20 19:41 5.50644 -75.89942 13642 ft 229 kts 327°
2026-04-20 19:41 5.52159 -75.90377 13650 ft 229 kts
2026-04-20 19:42 5.53663 -75.89913 13655 ft 229 kts 33°
2026-04-20 19:42 5.54884 -75.88886 13662 ft 229 kts 43°
2026-04-20 19:42 5.56015 -75.87754 13662 ft 230 kts 46°
2026-04-20 19:42 5.57120 -75.86596 13663 ft 230 kts 46°
2026-04-20 19:43 5.58228 -75.85427 13651 ft 231 kts 46°
2026-04-20 19:43 5.59322 -75.84271 13661 ft 231 kts 46°
2026-04-20 19:43 5.60426 -75.83106 13661 ft 231 kts 46°
2026-04-20 19:43 5.61467 -75.81880 13650 ft 230 kts 60°
2026-04-20 19:44 5.61822 -75.80338 13645 ft 230 kts 94°
2026-04-20 19:44 5.61275 -75.78859 13643 ft 229 kts 127°
2026-04-20 19:44 5.60014 -75.77926 13645 ft 228 kts 161°
2026-04-20 19:44 5.58455 -75.77844 13641 ft 226 kts 195°
2026-04-20 19:45 5.57094 -75.78597 13651 ft 224 kts 219°
2026-04-20 19:45 5.55961 -75.79676 13659 ft 226 kts 225°
2026-04-20 19:45 5.54884 -75.80801 13659 ft 227 kts 226°
2026-04-20 19:45 5.53799 -75.81951 13657 ft 227 kts 226°
2026-04-20 19:46 5.52711 -75.83109 13661 ft 228 kts 226°
2026-04-20 19:46 5.51641 -75.84282 13658 ft 228 kts 232°
2026-04-20 19:46 5.51084 -75.85750 13651 ft 229 kts 266°
2026-04-20 19:46 5.51429 -75.87289 13647 ft 229 kts 299°
2026-04-20 19:47 5.52566 -75.88389 13645 ft 230 kts 333°
2026-04-20 19:47 5.54114 -75.88687 13649 ft 230 kts
2026-04-20 19:47 5.55581 -75.88092 13653 ft 230 kts 37°
2026-04-20 19:47 5.56761 -75.87016 13659 ft 229 kts 45°
2026-04-20 19:48 5.57860 -75.85852 13660 ft 230 kts 47°
2026-04-20 19:48 5.58944 -75.84673 13659 ft 230 kts 47°
2026-04-20 19:48 5.60029 -75.83487 13658 ft 230 kts 47°
2026-04-20 19:48 5.61113 -75.82301 13659 ft 230 kts 47°
2026-04-20 19:49 5.62196 -75.81117 13652 ft 230 kts 47°
2026-04-20 19:49 5.63282 -75.79929 13652 ft 230 kts 47°
2026-04-20 19:49 5.64352 -75.78757 13652 ft 230 kts 47°
2026-04-20 19:49 5.65272 -75.77451 13631 ft 232 kts 69°
2026-04-20 19:50 5.65396 -75.75858 13624 ft 232 kts 103°
2026-04-20 19:50 5.64664 -75.74430 13640 ft 231 kts 129°
2026-04-20 19:50 5.63614 -75.73205 13643 ft 231 kts 132°
2026-04-20 19:50 5.62568 -75.71990 13653 ft 231 kts 131°
2026-04-20 19:51 5.61557 -75.70721 13649 ft 234 kts 128°
2026-04-20 19:51 5.60599 -75.69390 13652 ft 235 kts 126°
2026-04-20 19:51 5.59670 -75.68037 13654 ft 235 kts 124°
2026-04-20 19:51 5.58760 -75.66673 13658 ft 236 kts 124°
2026-04-20 19:52 5.57886 -75.65275 13640 ft 236 kts 121°
2026-04-20 19:52 5.57092 -75.63837 13657 ft 235 kts 118°
2026-04-20 19:52 5.56337 -75.62387 13664 ft 235 kts 118°
2026-04-20 19:52 5.55625 -75.60910 13651 ft 234 kts 115°
2026-04-20 19:53 5.54984 -75.59404 13660 ft 234 kts 112°
2026-04-20 19:53 5.54404 -75.57880 13647 ft 233 kts 110°
2026-04-20 19:53 5.53908 -75.56353 13662 ft 233 kts 107°
2026-04-20 19:53 5.53462 -75.54784 13663 ft 233 kts 105°
2026-04-20 19:54 5.53046 -75.53209 13666 ft 234 kts 105°
2026-04-20 19:54 5.52688 -75.51619 13668 ft 233 kts 102°
2026-04-20 19:54 5.52408 -75.50012 13664 ft 233 kts 99°
2026-04-20 19:54 5.52193 -75.48398 13674 ft 233 kts 97°
2026-04-20 19:55 5.52017 -75.46784 13687 ft 233 kts 97°
2026-04-20 19:55 5.51849 -75.45167 13687 ft 233 kts 96°
2026-04-20 19:55 5.51714 -75.43542 13684 ft 234 kts 94°
2026-04-20 19:55 5.51661 -75.41915 13684 ft 235 kts 90°
2026-04-20 19:56 5.51675 -75.40824 13677 ft 235 kts 88°
2026-04-20 19:56 5.51778 -75.38634 13678 ft 234 kts 84°
2026-04-20 19:56 5.52330 -75.37119 13668 ft 233 kts 53°
2026-04-20 19:56 5.53596 -75.36154 13668 ft 231 kts 20°
2026-04-20 19:57 5.55176 -75.35955 13673 ft 229 kts 358°
2026-04-20 19:57 5.56763 -75.36082 13678 ft 229 kts 353°
2026-04-20 19:57 5.58350 -75.36269 13682 ft 229 kts 353°
2026-04-20 19:57 5.59936 -75.36432 13680 ft 230 kts
2026-04-20 19:58 5.61426 -75.35965 13672 ft 231 kts 34°
2026-04-20 19:58 5.62436 -75.34739 13671 ft 232 kts 66°
2026-04-20 19:58 5.62855 -75.33179 13683 ft 231 kts 79°
2026-04-20 19:58 5.63164 -75.31593 13685 ft 232 kts 77°
2026-04-20 19:59 5.63590 -75.30033 13687 ft 232 kts 72°
2026-04-20 19:59 5.64128 -75.28509 13687 ft 232 kts 69°
2026-04-20 19:59 5.64743 -75.27011 13681 ft 232 kts 66°
2026-04-20 19:59 5.65419 -75.25537 13677 ft 232 kts 64°
2026-04-20 20:00 5.66151 -75.24086 13676 ft 232 kts 62°
2026-04-20 20:00 5.66709 -75.22580 13669 ft 232 kts 84°
2026-04-20 20:00 5.66428 -75.21030 13655 ft 231 kts 117°
2026-04-20 20:00 5.65392 -75.19819 13665 ft 230 kts 140°
2026-04-20 20:01 5.64119 -75.18850 13674 ft 230 kts 145°
2026-04-20 20:01 5.62781 -75.17966 13640 ft 232 kts 149°
2026-04-20 20:01 5.61391 -75.17136 13621 ft 232 kts 150°
2026-04-20 20:01 5.60002 -75.16323 13623 ft 231 kts 150°
2026-04-20 20:02 5.58611 -75.15511 13627 ft 231 kts 150°
2026-04-20 20:02 5.57220 -75.14696 13628 ft 231 kts 150°
2026-04-20 20:02 5.55837 -75.13873 13627 ft 231 kts 149°
2026-04-20 20:02 5.54472 -75.13017 13628 ft 231 kts 148°
2026-04-20 20:03 5.53109 -75.12151 13626 ft 232 kts 148°
2026-04-20 20:03 5.51748 -75.11283 13625 ft 232 kts 148°
2026-04-20 20:03 5.50399 -75.10418 13621 ft 233 kts 148°
2026-04-20 20:03 5.49029 -75.09535 13618 ft 233 kts 148°
2026-04-20 20:04 5.47665 -75.08655 13624 ft 233 kts 148°
2026-04-20 20:04 5.46298 -75.07773 13622 ft 234 kts 148°
2026-04-20 20:04 5.44930 -75.06890 13625 ft 234 kts 148°
2026-04-20 20:04 5.43607 -75.05939 13584 ft 234 kts 134°
2026-04-20 20:05 5.42855 -75.04515 13579 ft 233 kts 101°
2026-04-20 20:05 5.42986 -75.02917 13580 ft 231 kts 70°
2026-04-20 20:05 5.43640 -75.01467 13587 ft 231 kts 63°
2026-04-20 20:05 5.44268 -74.99990 13591 ft 231 kts 69°
2026-04-20 20:06 5.44735 -74.98439 13590 ft 231 kts 74°
2026-04-20 20:06 5.45076 -74.96857 13581 ft 231 kts 79°
2026-04-20 20:06 5.45294 -74.95252 13583 ft 232 kts 83°
2026-04-20 20:06 5.45429 -74.93633 13583 ft 232 kts 85°
2026-04-20 20:07 5.45487 -74.92009 13579 ft 233 kts 89°
2026-04-20 20:07 5.45432 -74.90403 13579 ft 233 kts 95°
2026-04-20 20:07 5.44869 -74.88896 13569 ft 234 kts 127°
2026-04-20 20:07 5.43583 -74.87930 13567 ft 233 kts 160°
2026-04-20 20:08 5.41987 -74.87773 13570 ft 231 kts 186°
2026-04-20 20:08 5.40395 -74.88000 13574 ft 231 kts 191°
2026-04-20 20:08 5.38813 -74.88291 13577 ft 231 kts 192°
2026-04-20 20:08 5.37766 -74.88495 13578 ft 231 kts 192°
2026-04-20 20:09 5.36186 -74.88805 13573 ft 231 kts 192°
2026-04-20 20:09 5.34604 -74.89112 13574 ft 231 kts 192°
2026-04-20 20:09 5.33028 -74.89422 13572 ft 231 kts 192°
2026-04-20 20:09 5.31440 -74.89727 13572 ft 232 kts 192°
2026-04-20 20:10 5.29855 -74.90034 13570 ft 232 kts 192°
2026-04-20 20:10 5.28268 -74.90344 13568 ft 232 kts 192°
2026-04-20 20:10 5.26681 -74.90653 13569 ft 232 kts 192°
2026-04-20 20:10 5.25096 -74.90968 13569 ft 232 kts 192°
2026-04-20 20:11 5.23514 -74.91305 13569 ft 232 kts 193°
2026-04-20 20:11 5.21937 -74.91641 13569 ft 232 kts 193°
2026-04-20 20:11 5.20381 -74.91972 13568 ft 231 kts 192°
2026-04-20 20:11 5.18785 -74.91856 13558 ft 234 kts 160°
2026-04-20 20:12 5.17490 -74.90892 13552 ft 235 kts 127°
2026-04-20 20:12 5.16913 -74.89380 13553 ft 234 kts 94°
2026-04-20 20:12 5.17230 -74.87810 13554 ft 231 kts 61°
2026-04-20 20:13 5.19848 -74.86326 13555 ft 225 kts 356°
2026-04-20 20:13 5.21393 -74.86555 13566 ft 225 kts 348°
2026-04-20 20:13 5.22924 -74.86877 13570 ft 225 kts 347°
2026-04-20 20:13 5.24456 -74.87213 13569 ft 226 kts 347°
2026-04-20 20:14 5.25993 -74.87550 13572 ft 225 kts 346°
2026-04-20 20:14 5.27523 -74.87905 13568 ft 226 kts 346°
2026-04-20 20:14 5.29052 -74.88267 13566 ft 226 kts 346°
2026-04-20 20:14 5.30513 -74.88818 13558 ft 225 kts 324°
2026-04-20 20:15 5.31462 -74.90040 13554 ft 225 kts 291°
2026-04-20 20:15 5.31575 -74.91571 13552 ft 226 kts 258°
2026-04-20 20:15 5.30815 -74.92937 13557 ft 228 kts 225°
2026-04-20 20:15 5.29515 -74.93845 13561 ft 230 kts 206°
2026-04-20 20:16 5.27955 -74.94179 13558 ft 232 kts 178°
2026-04-20 20:16 5.26365 -74.93907 13564 ft 233 kts 167°
2026-04-20 20:16 5.24804 -74.93465 13568 ft 233 kts 163°
2026-04-20 20:16 5.23264 -74.92965 13570 ft 233 kts 162°
2026-04-20 20:17 5.21719 -74.92448 13570 ft 234 kts 162°
2026-04-20 20:17 5.20190 -74.91895 13565 ft 234 kts 153°
2026-04-20 20:17 5.19010 -74.90796 13558 ft 235 kts 120°
2026-04-20 20:17 5.18610 -74.89239 13555 ft 233 kts 87°
2026-04-20 20:18 5.19107 -74.87718 13553 ft 231 kts 54°
2026-04-20 20:18 5.20329 -74.86731 13574 ft 227 kts 21°
2026-04-20 20:18 5.21874 -74.86560 13577 ft 225 kts 352°
2026-04-20 20:18 5.23410 -74.86854 13586 ft 225 kts 346°
2026-04-20 20:19 5.24926 -74.87246 13589 ft 225 kts 344°
2026-04-20 20:19 5.26441 -74.87660 13584 ft 226 kts 344°
2026-04-20 20:19 5.27940 -74.88071 13585 ft 226 kts 344°
2026-04-20 20:19 5.29445 -74.88516 13582 ft 225 kts 336°
2026-04-20 20:20 5.30627 -74.89509 13578 ft 225 kts 303°
2026-04-20 20:20 5.31053 -74.90996 13575 ft 226 kts 270°
2026-04-20 20:20 5.30579 -74.92484 13575 ft 228 kts 236°
2026-04-20 20:20 5.29355 -74.93481 13574 ft 231 kts 204°
2026-04-20 20:21 5.27767 -74.93671 13580 ft 233 kts 174°
2026-04-20 20:21 5.26178 -74.93349 13588 ft 233 kts 167°
2026-04-20 20:21 5.24607 -74.92946 13589 ft 233 kts 165°
2026-04-20 20:21 5.23040 -74.92518 13585 ft 233 kts 165°
2026-04-20 20:22 5.21474 -74.92081 13587 ft 234 kts 165°
2026-04-20 20:22 5.19893 -74.91732 13582 ft 232 kts 179°
2026-04-20 20:22 5.18313 -74.92026 13584 ft 231 kts 199°
2026-04-20 20:22 5.16801 -74.92575 13587 ft 231 kts 202°
2026-04-20 20:23 5.15317 -74.93141 13588 ft 231 kts 201°
2026-04-20 20:23 5.13810 -74.93716 13586 ft 232 kts 202°
2026-04-20 20:23 5.12290 -74.94278 13588 ft 233 kts 201°
2026-04-20 20:23 5.10822 -74.94951 13582 ft 232 kts 218°
2026-04-20 20:24 5.09876 -74.96211 13579 ft 227 kts 251°
2026-04-20 20:24 5.09792 -74.97765 13577 ft 225 kts 285°
2026-04-20 20:24 5.10578 -74.99084 13580 ft 223 kts 318°
2026-04-20 20:24 5.11964 -74.99734 13582 ft 223 kts 351°
2026-04-20 20:25 5.13484 -74.99493 13585 ft 226 kts 24°
2026-04-20 20:25 5.14713 -74.98509 13592 ft 228 kts 44°
2026-04-20 20:25 5.15783 -74.97320 13591 ft 229 kts 47°
2026-04-20 20:25 5.16830 -74.96112 13588 ft 230 kts 48°
2026-04-20 20:26 5.17873 -74.94899 13587 ft 229 kts 48°
2026-04-20 20:26 5.18914 -74.93691 13589 ft 229 kts 47°
2026-04-20 20:26 5.19959 -74.92480 13581 ft 230 kts 47°
2026-04-20 20:26 5.21104 -74.91411 13576 ft 228 kts 28°
2026-04-20 20:27 5.22623 -74.91071 13570 ft 226 kts 355°
2026-04-20 20:27 5.24065 -74.91635 13571 ft 224 kts 321°
2026-04-20 20:27 5.24944 -74.92901 13570 ft 225 kts 288°
2026-04-20 20:27 5.24976 -74.94454 13569 ft 227 kts 255°
2026-04-20 20:28 5.24140 -74.95782 13571 ft 229 kts 221°
2026-04-20 20:28 5.22759 -74.96584 13581 ft 230 kts 205°
2026-04-20 20:28 5.21286 -74.97213 13586 ft 231 kts 204°
2026-04-20 20:28 5.19796 -74.97822 13586 ft 231 kts 204°
2026-04-20 20:29 5.18303 -74.98429 13589 ft 232 kts 203°
2026-04-20 20:29 5.16824 -74.99025 13591 ft 232 kts 202°
2026-04-20 20:29 5.15229 -74.99316 13577 ft 233 kts 175°
2026-04-20 20:29 5.13736 -74.98716 13573 ft 236 kts 141°
2026-04-20 20:30 5.12799 -74.97420 13575 ft 235 kts 109°
2026-04-20 20:30 5.12692 -74.95821 13575 ft 230 kts 75°
2026-04-20 20:30 5.13454 -74.94447 13572 ft 226 kts 42°
2026-04-20 20:30 5.14769 -74.93600 13581 ft 224 kts 24°
2026-04-20 20:31 5.16215 -74.93037 13587 ft 224 kts 16°
2026-04-20 20:31 5.17731 -74.92602 13588 ft 225 kts 14°
2026-04-20 20:31 5.19247 -74.92189 13587 ft 226 kts 14°
2026-04-20 20:31 5.20769 -74.91780 13587 ft 227 kts 13°
2026-04-20 20:32 5.22274 -74.91306 13580 ft 227 kts 26°
2026-04-20 20:32 5.23410 -74.90224 13574 ft 230 kts 59°
2026-04-20 20:32 5.23769 -74.88692 13572 ft 232 kts 92°
2026-04-20 20:32 5.23236 -74.87181 13569 ft 234 kts 126°
2026-04-20 20:33 5.21966 -74.86186 13571 ft 235 kts 159°
2026-04-20 20:33 5.20369 -74.86015 13575 ft 233 kts 188°
2026-04-20 20:33 5.18784 -74.86330 13585 ft 232 kts 194°
2026-04-20 20:33 5.17217 -74.86712 13587 ft 232 kts 194°
2026-04-20 20:34 5.15652 -74.87109 13586 ft 232 kts 197°
2026-04-20 20:34 5.14120 -74.87622 13584 ft 233 kts 201°
2026-04-20 20:34 5.12596 -74.88178 13585 ft 233 kts 201°
2026-04-20 20:34 5.11062 -74.88697 13581 ft 234 kts 192°
2026-04-20 20:35 5.09436 -74.88576 13579 ft 237 kts 166°
2026-04-20 20:35 5.07859 -74.88073 13584 ft 237 kts 162°
2026-04-20 20:35 5.06289 -74.87548 13591 ft 237 kts 162°
2026-04-20 20:35 5.04722 -74.87024 13590 ft 238 kts 162°
2026-04-20 20:36 5.03173 -74.86503 13596 ft 237 kts 162°
2026-04-20 20:36 5.01606 -74.85982 13598 ft 237 kts 162°
2026-04-20 20:36 5.00045 -74.85456 13598 ft 237 kts 162°
2026-04-20 20:36 4.98481 -74.84927 13597 ft 238 kts 161°
2026-04-20 20:37 4.96924 -74.84359 13600 ft 238 kts 159°
2026-04-20 20:37 4.95384 -74.83737 13603 ft 238 kts 158°
2026-04-20 20:37 4.93850 -74.83108 13605 ft 237 kts 158°
2026-04-20 20:37 4.92328 -74.82466 13607 ft 237 kts 156°
2026-04-20 20:38 4.90826 -74.81784 13613 ft 237 kts 157°
2026-04-20 20:38 4.89303 -74.81153 13611 ft 237 kts 159°
2026-04-20 20:38 4.87768 -74.80547 13612 ft 237 kts 159°
2026-04-20 20:38 4.86232 -74.79945 13613 ft 237 kts 159°
2026-04-20 20:39 4.84695 -74.79345 13605 ft 236 kts 159°
2026-04-20 20:39 4.83181 -74.78754 13606 ft 236 kts 159°
2026-04-20 20:39 4.81652 -74.78156 13573 ft 236 kts 159°
2026-04-20 20:39 4.80126 -74.77559 13573 ft 235 kts 159°
2026-04-20 20:40 4.78596 -74.76962 13573 ft 235 kts 160°
2026-04-20 20:40 4.76993 -74.76714 13573 ft 234 kts 182°
2026-04-20 20:40 4.75370 -74.76847 13576 ft 233 kts 187°
2026-04-20 20:40 4.73765 -74.77090 13577 ft 233 kts 191°
2026-04-20 20:41 4.72170 -74.77395 13577 ft 233 kts 192°
2026-04-20 20:41 4.70570 -74.77711 13569 ft 233 kts 192°
2026-04-20 20:41 4.68979 -74.78031 13525 ft 235 kts 192°
2026-04-20 20:41 4.67355 -74.78356 13376 ft 240 kts 191°
2026-04-20 20:42 4.65693 -74.78561 13253 ft 242 kts 186°
2026-04-20 20:42 4.64011 -74.78761 13109 ft 244 kts 188°
2026-04-20 20:42 4.62326 -74.79006 12960 ft 244 kts 189°
2026-04-20 20:42 4.60685 -74.79247 12804 ft 239 kts 188°
2026-04-20 20:43 4.59051 -74.79475 12623 ft 236 kts 188°
2026-04-20 20:43 4.57433 -74.79701 12446 ft 234 kts 188°
2026-04-20 20:43 4.55820 -74.79929 12254 ft 233 kts 188°
2026-04-20 20:43 4.54219 -74.80159 12047 ft 232 kts 188°
2026-04-20 20:44 4.52619 -74.80391 11775 ft 231 kts 188°
2026-04-20 20:44 4.51040 -74.80624 11507 ft 228 kts 189°
2026-04-20 20:44 4.49471 -74.80858 11241 ft 227 kts 189°
2026-04-20 20:44 4.47915 -74.81093 10979 ft 226 kts 189°
2026-04-20 20:45 4.46365 -74.81330 10712 ft 224 kts 189°
2026-04-20 20:45 4.44844 -74.81566 10457 ft 224 kts 189°
2026-04-20 20:45 4.43308 -74.81806 10200 ft 223 kts 189°
2026-04-20 20:45 4.41771 -74.82049 9899 ft 224 kts 189°
2026-04-20 20:46 4.40237 -74.82309 9588 ft 224 kts 191°
2026-04-20 20:46 4.38714 -74.82643 9257 ft 224 kts 193°
2026-04-20 20:46 4.37193 -74.82994 8931 ft 224 kts 193°
2026-04-20 20:46 4.35679 -74.83344 8610 ft 223 kts 193°
2026-04-20 20:47 4.34174 -74.83694 8296 ft 222 kts 193°
2026-04-20 20:47 4.32672 -74.84046 7985 ft 221 kts 193°
2026-04-20 20:47 4.31176 -74.84394 7668 ft 220 kts 193°
2026-04-20 20:47 4.29677 -74.84676 7358 ft 218 kts 189°
2026-04-20 20:48 4.28182 -74.84923 7051 ft 217 kts 189°
2026-04-20 20:48 4.26702 -74.85192 6754 ft 217 kts 191°
2026-04-20 20:48 4.25217 -74.85490 6452 ft 216 kts 191°
2026-04-20 20:48 4.23746 -74.85786 6151 ft 215 kts 191°
2026-04-20 20:49 4.22282 -74.86080 5866 ft 213 kts 191°
2026-04-20 20:49 4.20841 -74.86366 5674 ft 209 kts 191°
2026-04-20 20:49 4.19414 -74.86651 5430 ft 209 kts 191°
2026-04-20 20:49 4.18096 -74.87156 5193 ft 206 kts 212°
2026-04-20 20:50 4.16936 -74.87974 5066 ft 201 kts 217°
2026-04-20 20:50 4.15822 -74.88789 5055 ft 199 kts 217°
2026-04-20 20:50 4.14694 -74.89617 5061 ft 203 kts 217°
2026-04-20 20:50 4.13549 -74.90463 5064 ft 205 kts 217°
2026-04-20 20:51 4.12392 -74.91316 5063 ft 207 kts 218°
2026-04-20 20:51 4.11565 -74.92464 5051 ft 205 kts 254°
2026-04-20 20:51 4.11596 -74.93857 5051 ft 202 kts 292°
2026-04-20 20:51 4.12456 -74.94917 5047 ft 198 kts 329°
2026-04-20 20:52 4.13767 -74.95208 5056 ft 196 kts
2026-04-20 20:52 4.14974 -74.94619 5050 ft 197 kts 44°
2026-04-20 20:52 4.15758 -74.93496 5061 ft 198 kts 60°
2026-04-20 20:52 4.16373 -74.92262 5069 ft 198 kts 63°
2026-04-20 20:53 4.16973 -74.91013 5058 ft 199 kts 63°
2026-04-20 20:53 4.17378 -74.90193 5056 ft 198 kts 62°
2026-04-20 20:53 4.17995 -74.88956 5060 ft 198 kts 62°
2026-04-20 20:53 4.18612 -74.87717 5061 ft 199 kts 62°
2026-04-20 20:54 4.19228 -74.86475 5059 ft 199 kts 62°
2026-04-20 20:54 4.20138 -74.85465 5054 ft 198 kts 28°
2026-04-20 20:54 4.21465 -74.85230 5047 ft 196 kts 351°
2026-04-20 20:54 4.22642 -74.85875 4991 ft 197 kts 313°
2026-04-20 20:55 4.23188 -74.87129 4927 ft 203 kts 277°
2026-04-20 20:55 4.22882 -74.88532 4699 ft 215 kts 242°
2026-04-20 20:55 4.21870 -74.89645 4468 ft 218 kts 222°
2026-04-20 20:55 4.20707 -74.90625 4291 ft 219 kts 220°
2026-04-20 20:56 4.19540 -74.91584 4076 ft 218 kts 220°
2026-04-20 20:56 4.18394 -74.92520 4064 ft 207 kts 220°
2026-04-20 20:56 4.17286 -74.93424 4057 ft 203 kts 220°
2026-04-20 20:56 4.16196 -74.94313 4050 ft 200 kts 220°
2026-04-20 20:57 4.14995 -74.94940 4052 ft 199 kts 190°
2026-04-20 20:57 4.13644 -74.94702 4052 ft 199 kts 150°
2026-04-20 20:57 4.12707 -74.93690 3890 ft 205 kts 114°
2026-04-20 20:57 4.12532 -74.92273 3651 ft 209 kts 78°
2026-04-20 20:58 4.13189 -74.91011 3432 ft 209 kts 47°
2026-04-20 20:58 4.14249 -74.90005 3219 ft 209 kts 39°
2026-04-20 20:58 4.15392 -74.89105 3057 ft 205 kts 36°
2026-04-20 20:58 4.16526 -74.88295 3065 ft 196 kts 34°
2026-04-20 20:59 4.17635 -74.87518 3057 ft 192 kts 34°
2026-04-20 20:59 4.18674 -74.86785 3044 ft 173 kts 34°
2026-04-20 20:59 4.19577 -74.86079 3045 ft 164 kts 43°
2026-04-20 20:59 4.20371 -74.85254 2870 ft 161 kts 45°
2026-04-20 21:00 4.21115 -74.84479 2595 ft 145 kts 45°
2026-04-20 21:00 4.21784 -74.83782 2325 ft 134 kts 44°
2026-04-20 21:00 4.22402 -74.83135 1990 ft 124 kts 44°
2026-04-20 21:00 4.22984 -74.82526 1773 ft 116 kts 45°
2026-04-20 21:01 4.23504 -74.81966 1632 ft 106 kts 45°
2026-04-20 21:01 4.23990 -74.81434 1495 ft 98 kts 44°
2026-04-20 21:01 4.24435 -74.80939 1487 ft 92 kts 44°
2026-04-20 21:01 4.24911 -74.80476 1447 ft 99 kts 30°
2026-04-20 21:02 4.25535 -74.80100 1321 ft 108 kts 22°
2026-04-20 21:02 4.26255 -74.79903 1158 ft 107 kts
2026-04-20 21:02 4.26957 -74.79754 952 ft 99 kts 11°
2026-04-20 21:02 4.27473 -74.79643 944 ft 53 kts 12°
2026-04-20 21:03 4.27716 -74.79589 940 ft 20 kts 14°
2026-04-20 21:03 4.27752 -74.79640 938 ft 14 kts 247°
2026-04-20 21:03 4.27712 -74.79733 940 ft 14 kts 245°
2026-04-20 21:03 4.27681 -74.79795 941 ft 5 kts 194°
2026-04-20 21:04 4.27675 -74.79796 941 ft 0 kts 192°